Record,Date/Time,10,Tamb(K),Rh(%),Pres(mb),Tir(K),Rain,Az(deg),El(deg),TkBB(K), Ch  22.234, Ch  23.034, Ch  23.834, Ch  26.234, Ch  30.000, Ch  51.248, Ch  52.280, Ch  53.848, Ch  54.940, Ch  56.660, Ch  57.288, Ch  58.800, Ch 
Record,Date/Time,40,Tamb(K),Rh(%),Pres(mb),Tir(K),Rain
Record,Date/Time,50,Az(deg),El(deg),TkBB(K), Ch  22.000, Ch  22.234, Ch  22.500, Ch  23.000, Ch  23.034, Ch  23.500, Ch  23.834, Ch  24.000, Ch  24.500, Ch  25.000, Ch  25.500, Ch  26.000, Ch  26.234, Ch  26.500, Ch  27.000, Ch  27.500, Ch  28.000, Ch  28.500, Ch  29.000, Ch  29.500, Ch  30.000, Ch  51.248, Ch  51.760, Ch  52.280, Ch  52.804, Ch  53.336, Ch  53.848, Ch  54.400, Ch  54.940, Ch  55.500, Ch  56.020, Ch  56.660, Ch  57.288, Ch  57.964, Ch  58.800, Ch 
Record,Date/Time,80,ID,SNR,Tamb(K),Rh(%),Pres(mb),Tir(K),Rain,Az(deg),El(deg),TkBB(K), Ch  22.234, Ch  23.034, Ch  23.834, Ch  26.234, Ch  30.000, Ch  51.248, Ch  52.280, Ch  53.848, Ch  54.940, Ch  56.660, Ch  57.288, Ch  58.800, Ch 
     1,06/04/18 00:00:39,41, 287.0420,  80.6500,1012.4540, 233.2600,1
     2,06/04/18 00:01:16,51,  0.00, 19.80,299.817, 93.602, 97.586, 96.816, 93.344,, 87.821, 83.683, 80.514, 73.408, 66.991, 62.840, 57.493,,, 54.142,, 51.235,, 49.370,, 50.533,222.799,241.690,262.193,279.157,288.923,291.541,291.575,290.466,288.817,286.848,285.809,284.029,285.553,285.104,
     3,06/04/18 00:01:35,51,  0.00, 90.00,299.849, 36.741, 38.755, 37.892, 37.036,, 34.297, 32.814, 31.649, 29.402, 26.632, 24.734, 22.897,,, 21.803,, 20.866,, 20.400,, 21.354,112.881,130.875,156.799,189.883,227.599,260.998,282.447,290.681,292.128,290.608,289.980,286.344,288.976,288.018,
     4,06/04/18 00:01:54,51,  0.00,160.20,299.876, 82.842, 86.855, 85.699, 82.800,, 77.875, 73.281, 71.604, 65.250, 59.377, 55.361, 50.813,,, 47.737,, 45.042,, 43.989,, 44.745,212.590,232.435,255.137,275.080,287.524,291.845,291.659,291.353,289.449,287.957,286.588,284.867,285.780,285.589,
     5,06/04/18 00:02:18,41, 286.8900,  80.4400,1012.2820, 232.4400,1
     6,06/04/18 00:02:55,51,  0.00, 19.80,299.879, 93.973, 96.593, 97.604, 93.579,, 87.057, 82.890, 80.957, 73.638, 66.584, 62.849, 57.583,,, 54.513,, 51.051,, 49.537,, 50.674,223.112,242.302,262.616,279.227,288.952,292.036,291.228,290.312,288.837,286.300,286.055,283.803,285.474,285.110,
     7,06/04/18 00:03:14,51,  0.00, 90.00,299.873, 36.445, 38.046, 38.344, 37.428,, 33.823, 32.264, 31.435, 29.128, 26.109, 24.723, 23.028,,, 22.018,, 20.659,, 20.590,, 20.758,113.010,131.000,156.233,189.748,227.228,261.344,283.149,290.483,292.133,290.289,290.268,286.292,289.324,288.595,
     8,06/04/18 00:03:32,51,  0.00,160.20,299.887, 82.684, 86.302, 86.140, 83.016,, 77.041, 73.173, 71.020, 64.866, 59.026, 55.389, 50.602,,, 47.822,, 44.696,, 43.611,, 43.866,211.992,232.648,255.485,275.389,287.378,292.100,292.481,290.927,289.669,287.517,286.490,284.691,285.913,286.088,
     9,06/04/18 00:03:56,41, 287.0970,  80.2200,1012.3740, 224.1900,1
    10,06/04/18 00:04:33,51,  0.00, 19.80,299.894, 93.423, 96.893, 96.803, 93.391,, 86.717, 82.548, 80.559, 73.153, 66.661, 62.569, 57.384,,, 53.907,, 50.535,, 49.194,, 49.884,222.571,241.605,262.416,279.177,288.598,291.233,290.922,289.888,288.419,286.736,285.969,283.906,285.189,284.371,
    11,06/04/18 00:04:51,51,  0.00, 90.00,299.911, 36.825, 38.115, 37.851, 37.011,, 33.965, 32.132, 31.788, 29.262, 26.435, 24.914, 22.563,,, 21.947,, 20.344,, 20.964,, 20.499,112.759,130.722,157.125,190.065,227.318,260.845,282.753,290.329,292.091,290.710,289.740,286.711,288.889,287.888,
    12,06/04/18 00:05:10,51,  0.00,160.20,299.943, 82.878, 86.936, 86.253, 83.673,, 77.191, 73.183, 71.530, 65.554, 59.671, 55.560, 51.267,,, 48.119,, 44.779,, 43.846,, 44.530,212.103,231.959,255.496,275.144,287.264,291.227,291.527,290.857,289.293,286.861,286.158,284.235,285.476,284.894,
    13,06/04/18 00:05:34,41, 287.0030,  81.1400,1012.3440, 238.1800,1
    14,06/04/18 00:06:11,51,  0.00, 19.80,299.914, 93.639, 96.734, 96.827, 93.738,, 87.000, 82.659, 80.693, 73.745, 66.959, 62.812, 57.794,,, 54.352,, 50.490,, 49.158,, 51.173,222.663,242.518,262.154,278.878,288.396,291.315,291.536,290.615,288.722,286.385,286.036,284.248,285.446,284.929,
    15,06/04/18 00:06:29,51,  0.00, 90.00,299.919, 36.625, 38.310, 38.044, 36.947,, 34.247, 32.538, 32.073, 29.506, 26.693, 25.077, 22.845,,, 22.165,, 20.619,, 20.373,, 21.161,112.704,131.194,156.127,189.523,227.208,261.128,283.206,291.042,292.299,289.930,290.329,287.025,289.011,288.020,
    16,06/04/18 00:06:48,51,  0.00,160.20,299.951, 82.967, 86.360, 85.884, 83.159,, 77.381, 73.074, 71.548, 65.022, 59.242, 54.998, 50.479,,, 47.924,, 44.341,, 43.409,, 44.091,212.014,233.132,254.912,274.926,287.407,291.601,292.048,290.960,289.575,286.703,286.579,284.387,285.885,285.802,
    17,06/04/18 00:07:12,41, 286.9020,  80.9200,1012.3260, 241.4900,1
    18,06/04/18 00:07:49,51,  0.00, 19.80,299.905, 93.802, 97.043, 96.772, 93.720,, 87.767, 83.162, 81.014, 73.560, 67.067, 62.602, 57.535,,, 54.171,, 50.696,, 49.808,, 50.807,222.860,241.578,262.018,279.265,288.768,291.377,291.133,290.155,288.332,286.310,286.023,284.610,285.271,284.529,
    19,06/04/18 00:08:08,51,  0.00, 90.00,299.901, 36.940, 38.142, 38.322, 37.040,, 34.278, 32.312, 31.728, 29.290, 26.589, 24.804, 22.718,,, 22.167,, 20.477,, 21.005,, 20.862,113.048,130.547,156.729,190.168,227.580,260.941,283.029,290.222,292.223,290.042,290.485,286.627,288.592,288.357,
    20,06/04/18 00:08:27,51,  0.00,160.20,299.914, 83.253, 86.701, 86.667, 83.268,, 77.446, 73.541, 71.678, 65.497, 59.467, 55.266, 50.563,,, 47.702,, 44.653,, 44.114,, 44.341,211.887,231.371,254.694,275.079,287.121,291.093,291.737,290.713,289.749,287.343,286.636,284.777,285.507,285.265,
    21,06/04/18 00:08:50,41, 286.9020,  81.3200,1012.2420, 248.1600,1
    22,06/04/18 00:09:27,51,  0.00, 19.80,299.899, 94.201, 97.325, 97.404, 93.772,, 86.968, 82.919, 80.645, 73.728, 66.953, 62.546, 57.582,,, 54.692,, 50.895,, 49.503,, 50.709,222.690,242.086,262.233,279.089,288.537,291.945,291.277,289.862,288.435,286.307,285.730,284.322,285.719,284.720,
    23,06/04/18 00:09:46,51,  0.00, 90.00,299.872, 37.512, 38.459, 38.505, 36.855,, 34.085, 32.468, 31.772, 29.427, 26.441, 25.121, 22.727,,, 21.964,, 20.662,, 21.009,, 20.679,112.872,131.522,157.117,190.206,227.348,261.134,283.013,290.390,292.151,290.555,290.181,286.801,289.104,288.461,
    24,06/04/18 00:10:05,51,  0.00,160.20,299.889, 83.503, 86.491, 86.480, 83.257,, 77.127, 73.180, 71.558, 65.066, 59.350, 54.925, 50.656,,, 47.726,, 44.339,, 43.615,, 44.643,212.008,232.583,255.319,274.966,287.704,291.771,292.036,290.771,288.862,287.172,286.773,284.371,285.834,285.801,
    25,06/04/18 00:10:29,41, 286.7770,  81.0600,1012.2380, 236.6500,1
    26,06/04/18 00:11:06,51,  0.00, 19.80,299.880, 93.696, 97.500, 97.060, 93.822,, 86.836, 82.837, 80.810, 73.956, 67.292, 62.738, 57.614,,, 54.226,, 50.980,, 49.441,, 50.079,222.388,241.630,262.315,279.565,289.139,292.216,291.512,290.362,289.417,286.499,286.271,284.339,285.527,285.362,
    27,06/04/18 00:11:24,51,  0.00, 90.00,299.899, 37.159, 38.506, 37.906, 37.292,, 34.341, 32.422, 31.384, 29.237, 26.417, 25.137, 22.558,,, 21.959,, 20.209,, 20.687,, 20.890,112.583,130.597,156.582,189.961,227.307,261.218,283.267,290.764,292.403,290.351,290.246,286.900,289.025,288.771,
    28,06/04/18 00:11:43,51,  0.00,160.20,299.865, 82.999, 86.560, 86.003, 82.642,, 77.047, 73.124, 70.931, 65.376, 59.430, 54.916, 50.604,,, 47.729,, 44.379,, 43.217,, 44.150,211.743,232.452,255.665,275.459,287.568,292.241,292.487,291.286,289.944,287.410,287.133,285.248,286.654,286.361,
    29,06/04/18 00:12:06,41, 286.9720,  81.1700,1012.2580, 235.5600,1
    30,06/04/18 00:12:43,51,  0.00, 19.80,299.847, 93.699, 97.290, 97.092, 93.204,, 87.320, 82.886, 80.713, 73.462, 66.965, 62.964, 57.518,,, 54.014,, 50.607,, 48.994,, 50.458,222.744,241.978,262.256,279.306,289.318,291.664,291.585,290.414,288.968,286.741,286.163,284.313,285.859,286.268,
    31,06/04/18 00:13:02,51,  0.00, 90.00,299.846, 36.907, 38.541, 38.029, 37.084,, 34.051, 32.402, 31.741, 29.181, 26.364, 24.807, 23.078,,, 21.393,, 20.171,, 20.432,, 20.157,112.666,130.535,156.754,189.851,227.447,261.266,282.907,290.856,292.420,290.140,290.424,286.631,289.064,289.081,
    32,06/04/18 00:13:21,51,  0.00,160.20,299.881, 83.017, 87.214, 86.181, 83.325,, 77.761, 73.493, 71.761, 64.920, 59.626, 55.228, 50.545,,, 47.301,, 44.625,, 43.131,, 44.022,211.978,232.410,255.218,274.959,287.518,291.756,292.420,291.192,289.828,287.225,286.679,284.374,286.000,286.350,
    33,06/04/18 00:13:45,41, 286.8040,  80.9400,1012.1940, 228.5400,1
    34,06/04/18 00:14:22,51,  0.00, 19.80,299.852, 93.952, 97.200, 96.924, 93.601,, 87.382, 82.789, 80.462, 73.934, 66.830, 62.590, 57.557,,, 54.261,, 50.945,, 48.975,, 49.477,222.566,241.393,262.183,279.095,288.954,292.040,291.725,290.172,288.561,287.229,285.867,283.945,285.643,285.437,
    35,06/04/18 00:14:41,51,  0.00, 90.00,299.846, 36.902, 38.132, 38.161, 36.824,, 34.393, 31.857, 31.341, 29.470, 26.825, 24.858, 22.770,,, 22.293,, 20.628,, 20.414,, 20.936,112.323,130.638,156.813,190.092,227.345,260.975,283.086,290.290,292.057,290.699,289.543,286.319,288.731,289.069,
    36,06/04/18 00:15:00,51,  0.00,160.20,299.874, 83.594, 86.980, 86.567, 83.540,, 77.946, 73.168, 71.737, 65.387, 59.682, 55.241, 50.974,,, 47.938,, 44.586,, 43.154,, 44.125,211.971,232.389,255.272,275.536,287.569,292.036,292.269,291.095,289.626,287.679,286.696,284.591,285.668,285.473,
    37,06/04/18 00:15:24,41, 286.7770,  80.6800,1012.1840, 230.0200,1
    38,06/04/18 00:16:01,51,  0.00, 19.80,299.858, 93.984, 96.924, 96.718, 93.808,, 87.222, 83.060, 80.625, 73.288, 67.293, 63.173, 57.393,,, 54.279,, 50.901,, 49.108,, 50.507,222.593,241.845,262.201,279.353,288.931,291.538,291.854,290.569,289.070,286.714,285.539,284.206,285.189,285.203,
    39,06/04/18 00:16:20,51,  0.00, 90.00,299.841, 37.056, 37.986, 38.254, 37.506,, 33.813, 32.939, 31.399, 29.367, 26.830, 25.127, 22.932,,, 22.173,, 20.661,, 20.460,, 20.309,112.688,130.864,156.535,189.766,227.449,261.001,282.768,290.961,292.354,290.657,290.370,286.634,288.872,288.569,
    40,06/04/18 00:16:39,51,  0.00,160.20,299.844, 83.720, 86.976, 86.623, 83.683,, 77.725, 73.751, 71.479, 65.160, 59.301, 55.181, 50.467,,, 47.618,, 44.868,, 43.395,, 44.233,212.050,232.798,255.284,275.175,287.745,292.071,292.738,291.856,290.327,287.556,287.039,285.101,286.013,286.220,
    41,06/04/18 00:17:03,41, 286.8740,  80.9300,1012.3320, 231.9700,1
    42,06/04/18 00:17:39,51,  0.00, 19.80,299.798, 93.359, 96.865, 96.684, 93.143,, 86.554, 82.500, 80.344, 73.492, 66.480, 62.198, 57.402,,, 53.754,, 50.657,, 49.472,, 49.407,222.432,241.572,262.260,278.945,288.861,292.130,291.692,290.207,288.790,286.763,286.343,284.863,285.731,285.467,
    43,06/04/18 00:17:58,51,  0.00, 90.00,299.818, 36.610, 38.469, 38.013, 36.754,, 33.803, 32.344, 31.458, 29.606, 26.359, 24.881, 23.032,,, 21.809,, 20.568,, 20.589,, 20.171,112.438,130.893,156.784,189.660,227.051,260.989,283.387,290.381,292.250,290.439,290.222,286.800,288.689,288.803,
    44,06/04/18 00:18:17,51,  0.00,160.20,299.821, 84.016, 87.485, 86.608, 84.216,, 78.142, 73.878, 72.174, 66.453, 59.974, 55.569, 51.355,,, 47.965,, 45.013,, 43.965,, 44.364,211.722,232.553,255.171,274.923,286.794,291.956,292.059,290.974,289.887,287.352,287.509,284.822,286.113,285.972,
    45,06/04/18 00:18:41,41, 286.9020,  80.7500,1012.2440, 223.8100,1
    46,06/04/18 00:19:18,51,  0.00, 19.80,299.828, 93.602, 96.612, 96.647, 93.206,, 86.875, 82.768, 80.032, 73.181, 66.684, 62.766, 57.489,,, 54.150,, 50.331,, 49.318,, 50.052,222.914,242.124,262.424,279.449,288.926,291.770,291.767,290.800,288.937,286.520,285.721,283.949,285.622,285.612,
    47,06/04/18 00:19:37,51,  0.00, 90.00,299.836, 36.663, 38.024, 37.902, 36.439,, 34.447, 32.252, 31.581, 29.162, 26.596, 25.012, 22.886,,, 22.173,, 20.340,, 20.794,, 20.585,112.740,131.038,157.083,190.312,227.810,261.083,283.216,290.682,292.110,290.102,290.076,286.689,288.852,288.763,
    48,06/04/18 00:19:56,51,  0.00,160.20,299.829, 84.114, 87.450, 86.792, 84.100,, 78.095, 74.070, 71.858, 65.339, 59.842, 55.672, 50.935,,, 47.817,, 44.278,, 43.974,, 44.670,212.355,232.760,255.523,275.710,288.007,291.812,292.791,291.691,289.857,286.984,286.870,284.684,285.912,285.658,
    49,06/04/18 00:20:21,41, 286.8350,  80.4300,1012.0120, 235.7300,1
    50,06/04/18 00:20:58,51,  0.00, 19.80,299.808, 93.537, 96.636, 96.440, 93.488,, 86.572, 81.845, 79.702, 73.137, 66.426, 62.311, 57.189,,, 53.704,, 50.202,, 48.472,, 49.960,222.414,241.541,262.685,279.390,288.870,292.062,291.368,290.508,288.723,286.533,285.691,283.907,285.273,285.852,
    51,06/04/18 00:21:17,51,  0.00, 90.00,299.802, 37.283, 38.524, 38.504, 37.142,, 34.102, 32.247, 31.722, 28.918, 26.123, 24.537, 22.604,,, 22.018,, 20.785,, 20.518,, 20.743,112.970,131.154,156.841,189.954,227.342,261.263,282.726,290.768,292.006,290.280,290.073,286.057,288.648,288.710,
    52,06/04/18 00:21:36,51,  0.00,160.20,299.803, 84.472, 87.728, 86.987, 84.562,, 78.534, 73.835, 72.289, 65.550, 59.917, 55.533, 50.958,,, 48.262,, 44.909,, 43.590,, 44.357,212.171,232.150,255.418,275.636,287.217,292.203,292.324,291.516,289.818,287.171,287.009,284.473,286.033,285.839,
    53,06/04/18 00:21:59,41, 286.8350,  80.5800,1012.0620, 257.2500,1
    54,06/04/18 00:22:36,51,  0.00, 19.80,299.746, 92.980, 96.529, 96.332, 93.172,, 86.905, 82.452, 79.690, 73.031, 65.632, 62.197, 56.843,,, 53.276,, 50.083,, 49.037,, 49.996,222.422,241.621,261.939,279.133,288.855,292.426,291.757,290.944,289.418,287.794,286.790,284.498,286.192,285.463,
    55,06/04/18 00:22:55,51,  0.00, 90.00,299.805, 36.970, 38.346, 38.467, 36.871,, 34.534, 32.696, 31.371, 29.145, 25.952, 24.954, 22.794,,, 21.607,, 20.275,, 20.359,, 20.257,112.879,130.245,156.619,189.701,227.275,261.442,282.844,290.792,292.093,290.973,290.539,286.790,289.492,288.711,
    56,06/04/18 00:23:14,51,  0.00,160.20,299.790, 84.055, 87.536, 86.861, 83.831,, 78.409, 74.044, 71.754, 65.541, 59.494, 55.932, 50.949,,, 47.756,, 44.538,, 43.886,, 44.896,212.222,232.548,255.076,275.065,287.244,292.274,291.967,291.579,290.283,288.243,287.494,285.114,286.428,286.063,
    57,06/04/18 00:23:37,41, 286.7220,  80.7900,1012.0760, 223.9900,1
    58,06/04/18 00:24:14,51,  0.00, 19.80,299.725, 93.592, 96.982, 96.542, 93.777,, 86.828, 82.503, 80.616, 73.209, 66.677, 62.471, 57.346,,, 53.838,, 50.069,, 48.773,, 49.584,222.267,241.873,262.437,279.522,288.727,291.493,291.471,290.494,289.490,287.088,286.288,284.663,285.397,285.811,
    59,06/04/18 00:24:33,51,  0.00, 90.00,299.747, 37.323, 38.376, 37.975, 36.913,, 34.183, 32.168, 32.035, 28.831, 26.598, 25.056, 22.915,,, 21.785,, 20.602,, 20.426,, 20.295,112.428,130.789,156.512,190.140,227.156,260.974,282.635,291.221,292.361,291.156,290.395,287.569,289.345,289.149,
    60,06/04/18 00:24:52,51,  0.00,160.20,299.732, 84.688, 88.090, 87.361, 84.406,, 78.743, 74.431, 72.291, 65.950, 60.327, 55.717, 51.232,,, 47.866,, 44.924,, 44.193,, 44.188,212.037,232.628,255.634,275.772,287.437,292.180,292.524,292.064,290.638,288.397,287.517,285.571,286.475,286.151,
    61,06/04/18 00:25:16,41, 286.5540,  81.0300,1012.2000, 220.5400,1
    62,06/04/18 00:25:53,51,  0.00, 19.80,299.736, 93.105, 96.372, 96.202, 93.493,, 86.900, 82.446, 80.427, 73.490, 66.336, 62.478, 57.214,,, 53.658,, 50.454,, 48.553,, 49.142,222.067,241.807,262.144,279.294,289.127,291.907,291.767,290.356,288.664,286.884,286.411,283.991,285.887,286.004,
    63,06/04/18 00:26:12,51,  0.00, 90.00,299.715, 36.331, 37.779, 37.931, 37.185,, 33.900, 32.016, 31.711, 29.379, 26.529, 24.686, 22.747,,, 21.984,, 20.669,, 20.359,, 20.364,112.575,130.838,156.375,189.852,227.767,261.341,283.085,290.334,292.416,290.221,290.539,286.235,289.293,289.277,
    64,06/04/18 00:26:31,51,  0.00,160.20,299.706, 84.175, 87.602, 86.893, 84.360,, 78.509, 73.951, 72.148, 65.889, 60.051, 55.821, 51.022,,, 47.884,, 44.980,, 43.917,, 44.249,212.078,232.732,255.496,275.782,287.899,292.184,292.766,291.788,289.655,287.568,287.433,284.752,286.589,286.829,
    65,06/04/18 00:26:55,41, 286.8040,  81.2900,1012.2320, 223.6400,1
    66,06/04/18 00:27:32,51,  0.00, 19.80,299.681, 94.051, 97.033, 96.830, 94.106,, 87.178, 82.809, 80.179, 73.128, 66.123, 62.613, 57.071,,, 53.506,, 50.658,, 48.693,, 49.187,221.962,241.730,262.063,279.005,288.799,292.121,291.486,289.947,288.860,287.060,286.350,284.428,285.266,285.041,
    67,06/04/18 00:27:51,51,  0.00, 90.00,299.678, 37.268, 38.471, 38.766, 37.385,, 34.305, 32.902, 31.950, 29.153, 26.566, 25.219, 22.606,,, 21.847,, 20.706,, 20.435,, 20.242,112.544,131.076,156.505,189.707,227.301,261.486,282.909,290.820,292.254,290.573,290.367,286.582,289.170,288.295,
    68,06/04/18 00:28:09,51,  0.00,160.20,299.706, 84.314, 87.467, 87.442, 84.175,, 78.557, 74.179, 71.818, 65.114, 59.481, 55.712, 51.111,,, 47.930,, 44.940,, 43.581,, 43.739,211.337,232.476,255.341,275.199,287.838,292.250,292.337,291.541,289.985,288.363,287.375,284.880,286.475,286.010,
    69,06/04/18 00:28:33,41, 286.7920,  80.6700,1012.1480, 221.0200,1
    70,06/04/18 00:29:10,51,  0.00, 19.80,299.724, 93.658, 97.132, 97.116, 93.561,, 87.041, 82.879, 80.426, 72.980, 66.420, 62.373, 57.477,,, 53.733,, 50.389,, 49.001,, 49.840,222.672,241.437,262.151,279.254,289.059,291.919,291.869,290.179,288.580,286.386,285.850,284.499,285.539,285.396,
    71,06/04/18 00:29:29,51,  0.00, 90.00,299.714, 36.912, 38.615, 38.056, 36.956,, 34.461, 32.275, 31.644, 28.837, 26.095, 24.640, 22.572,,, 21.671,, 20.367,, 20.465,, 20.618,112.683,130.685,156.371,190.077,227.441,260.956,283.042,290.301,291.878,289.958,290.041,286.375,288.893,288.623,
    72,06/04/18 00:29:48,51,  0.00,160.20,299.700, 84.294, 87.560, 87.250, 84.027,, 78.412, 74.197, 71.940, 65.672, 59.553, 55.338, 51.279,,, 48.059,, 44.811,, 44.061,, 44.464,211.967,232.187,255.338,275.377,287.773,292.491,292.350,291.312,289.999,288.029,287.292,285.538,286.994,286.396,
    73,06/04/18 00:30:12,41, 286.8040,  80.3600,1012.1400, 220.5700,1
    74,06/04/18 00:30:49,51,  0.00, 19.80,299.688, 93.885, 96.654, 96.570, 93.768,, 86.978, 82.676, 80.473, 73.148, 66.654, 62.563, 57.460,,, 54.091,, 50.868,, 48.927,, 49.619,222.532,241.692,262.163,279.079,289.208,291.859,292.106,290.897,289.014,286.767,286.277,284.553,286.058,285.793,
    75,06/04/18 00:31:08,51,  0.00, 90.00,299.701, 36.811, 38.421, 38.437, 37.762,, 34.355, 32.572, 32.085, 29.481, 26.651, 25.026, 23.259,,, 21.780,, 20.626,, 20.234,, 20.502,112.798,130.800,156.706,189.976,227.606,261.171,283.128,290.716,292.304,290.477,290.059,286.760,289.206,288.422,
    76,06/04/18 00:31:27,51,  0.00,160.20,299.714, 84.427, 87.552, 87.390, 84.660,, 78.414, 74.512, 72.249, 66.025, 60.536, 55.860, 51.386,,, 48.165,, 44.926,, 44.345,, 45.140,211.961,232.237,255.235,275.207,287.333,291.947,292.776,291.229,290.135,287.920,287.296,285.246,286.804,285.703,
    77,06/04/18 00:31:51,41, 286.5700,  80.7500,1012.2160, 220.0100,1
    78,06/04/18 00:32:28,51,  0.00, 19.80,299.649, 93.868, 97.325, 96.978, 93.960,, 87.576, 83.366, 80.825, 73.892, 66.994, 62.846, 57.689,,, 54.070,, 50.596,, 49.217,, 50.154,222.278,242.067,262.650,279.602,289.334,292.144,292.287,290.852,289.268,287.374,286.398,284.720,285.749,285.884,
    79,06/04/18 00:32:47,51,  0.00, 90.00,299.675, 37.199, 39.205, 38.096, 37.141,, 34.765, 32.965, 31.854, 29.651, 27.153, 25.246, 23.611,,, 22.584,, 20.535,, 20.702,, 20.923,112.727,131.117,156.785,190.021,227.552,261.023,283.095,290.825,291.856,290.588,290.248,286.619,288.592,288.518,
    80,06/04/18 00:33:05,51,  0.00,160.20,299.677, 84.644, 88.176, 87.735, 84.405,, 78.932, 74.440, 72.418, 66.345, 60.253, 55.887, 51.493,,, 48.268,, 44.899,, 44.027,, 44.389,212.075,232.837,255.788,275.572,287.927,292.125,292.675,291.657,290.273,288.114,287.359,285.205,286.723,286.874,
    81,06/04/18 00:33:29,41, 286.5540,  80.8300,1012.0880, 220.5800,1
    82,06/04/18 00:34:06,51,  0.00, 19.80,299.625, 93.608, 96.826, 96.561, 93.745,, 87.047, 82.930, 80.179, 73.376, 66.689, 62.325, 57.203,,, 53.889,, 50.491,, 49.097,, 49.671,222.108,241.703,262.265,279.019,288.655,291.894,292.065,290.579,289.370,286.848,286.388,284.610,285.850,285.898,
    83,06/04/18 00:34:25,51,  0.00, 90.00,299.639, 36.709, 38.326, 38.314, 36.964,, 34.169, 32.569, 31.458, 29.084, 26.276, 24.581, 22.675,,, 21.909,, 20.406,, 20.139,, 20.472,112.175,130.595,156.583,189.701,227.313,260.778,282.981,290.498,292.094,290.261,290.026,286.559,288.359,288.454,
    84,06/04/18 00:34:44,51,  0.00,160.20,299.649, 83.951, 87.664, 87.479, 84.442,, 78.203, 74.496, 72.134, 65.869, 59.734, 55.265, 50.936,,, 47.924,, 45.087,, 43.596,, 44.638,211.651,232.872,255.190,275.075,287.286,291.900,292.601,291.423,290.031,287.829,287.109,285.019,286.333,285.871,
    85,06/04/18 00:35:08,41, 286.5810,  81.4600,1012.1220, 219.7300,1
    86,06/04/18 00:35:45,51,  0.00, 19.80,299.546, 93.864, 97.237, 97.020, 93.938,, 87.115, 82.920, 80.318, 73.998, 66.604, 62.651, 57.306,,, 53.914,, 50.518,, 49.293,, 49.849,222.484,241.493,262.435,279.388,288.711,292.361,291.664,290.427,289.001,286.645,285.886,284.633,285.907,285.395,
    87,06/04/18 00:36:04,51,  0.00, 90.00,299.569, 36.757, 37.996, 37.753, 37.038,, 33.856, 32.114, 31.263, 29.382, 26.131, 24.888, 23.134,,, 21.855,, 20.521,, 20.705,, 20.552,112.414,130.822,156.598,189.976,227.394,261.498,282.953,291.003,292.487,290.779,290.686,287.376,289.323,289.025,
    88,06/04/18 00:36:22,51,  0.00,160.20,299.588, 83.895, 87.275, 87.178, 84.396,, 78.280, 74.051, 71.661, 65.846, 59.570, 55.638, 51.003,,, 47.931,, 44.643,, 43.760,, 44.559,211.877,232.503,255.205,275.247,287.445,292.528,292.002,292.203,290.442,287.800,287.169,285.629,286.653,286.548,
    89,06/04/18 00:36:46,41, 286.4990,  81.2600,1012.1940, 220.3300,1
    90,06/04/18 00:37:23,51,  0.00, 19.80,299.568, 93.892, 97.169, 96.993, 94.069,, 86.891, 82.994, 80.377, 73.656, 66.929, 62.273, 57.458,,, 53.850,, 50.724,, 49.345,, 49.843,221.801,241.432,262.306,279.380,289.113,291.831,291.065,290.430,289.477,286.997,286.422,284.100,285.109,285.478,
    91,06/04/18 00:37:41,51,  0.00, 90.00,299.563, 36.860, 38.007, 37.774, 36.788,, 33.838, 31.926, 31.444, 29.188, 26.155, 24.383, 22.963,,, 21.998,, 21.004,, 21.175,, 21.088,112.414,130.720,156.402,189.591,227.459,260.917,282.538,290.505,292.982,290.486,290.698,286.653,288.853,288.490,
    92,06/04/18 00:38:00,51,  0.00,160.20,299.564, 83.633, 87.028, 86.496, 83.975,, 77.637, 73.983, 71.492, 65.712, 59.765, 54.947, 50.829,,, 47.564,, 44.810,, 43.685,, 43.950,211.317,232.035,255.389,275.368,287.759,292.026,292.387,291.678,290.581,288.573,287.711,285.485,286.199,285.525,
    93,06/04/18 00:38:24,41, 286.6520,  81.0300,1012.1960, 220.5500,1
    94,06/04/18 00:39:01,51,  0.00, 19.80,299.539, 93.979, 97.081, 97.361, 94.192,, 87.359, 83.041, 80.576, 73.700, 67.137, 62.362, 57.454,,, 54.275,, 51.090,, 49.325,, 50.539,222.412,241.568,261.646,279.206,288.684,291.915,292.021,290.755,288.946,287.109,286.210,284.327,284.945,284.846,
    95,06/04/18 00:39:20,51,  0.00, 90.00,299.553, 36.785, 38.091, 38.339, 36.952,, 34.549, 32.260, 31.270, 29.045, 26.957, 24.489, 22.927,,, 22.251,, 20.984,, 20.626,, 20.372,112.698,130.963,156.774,189.731,227.122,261.024,283.012,290.963,292.197,290.848,290.163,287.329,288.746,287.539,
    96,06/04/18 00:39:38,51,  0.00,160.20,299.548, 83.437, 87.255, 86.989, 83.541,, 78.310, 73.682, 71.317, 65.394, 60.028, 55.221, 50.585,,, 48.166,, 45.048,, 43.955,, 44.562,211.990,232.507,255.072,275.333,287.566,292.244,292.376,291.630,290.302,288.290,287.014,285.160,285.736,284.832,
    97,06/04/18 00:40:03,41, 286.3590,  81.1800,1012.0880, 224.6000,1
    98,06/04/18 00:40:40,51,  0.00, 19.80,299.528, 93.823, 96.945, 96.592, 93.855,, 86.666, 82.699, 80.777, 73.645, 66.482, 62.982, 57.315,,, 54.309,, 50.835,, 49.559,, 49.755,222.316,241.704,262.138,279.626,288.888,291.730,291.234,290.134,288.889,286.802,286.518,284.490,285.000,285.116,